THOR ABLESTAR DEB *, 19961

Orbit data source: Space-Track

THOR ABLESTAR DEB *, 19961 is space debris in LEO originally from a launch on Thu, 29 Jun 1961 UTC launched from the Air Force Eastern Test Range (AFETR). Debris objects in space refer to the collection of defunct objects orbiting the Earth. Examples of debris include non-operational satellites, rocket bodies, and fragments generated from explosions, collisions, or faulty payload assembly.

Loading next visibility...
Identifier
19961, 1961-015MJ
Orbit
LEO
Country
Flag of USUS
Related business
Manufacturer
Unknown
Mission
Spacecraft
Bus & Motor
Unknown
Mass
Unknown
Launch date (UTC)
1961-06-29 (64 years ago)
Launch vehicle
Unknown
Launch site
Air Force Eastern Test Range (AFETR)
Object type
Payload
Rocket body
Debris
Shape & HBR
Unknown shape, 0.1 m
Radar Cross Section
Small (<0.1 m²)

Expand to show TLE details & history
Last TLE update: 14 hours ago

TLE from 14 hours ago
0 THOR ABLESTAR DEB *
1 19961U 61015MJ  25298.37208434  .00000434  00000-0  46990-3 0  9998
2 19961  65.6418  75.1687 0148476 112.4296 281.9635 13.78505196908159
Epoch: 2025-10-25T08:55Z
TLE epoch observation values (Epoch: 2025-10-25T08:55:48.086Z)
Latitude
29.56675°
Longitude
-77.98173°
Altitude
950.891 km
Speed
7.39 km/s
True Right ascension
05h 59m 53s
True Declination
29° 25' 24"
Sunlit
Object was in full shadow at epoch
Visualization orbit readout
Latitude
Unknown
Longitude
Unknown
Altitude
Unknown
Speed
Unknown
Apparent Right ascension
Unknown
Apparent Declination
Unknown
Sunlit
N/A
Visualization observer readout
Local Sidereal Time
18:30:50
Azimuth
Unknown
Elevation
Unknown
Doppler factor
Unknown
Orbital elements
Apogee altitude
1,076.799 km
Perigee altitude
858.662 km
Semi-major axis
7,345.867 km
Eccentricity
0.01485
Inclination
65.6418°
RAAN
75.1687°
Arg. of periapsis
112.4296°
True anomaly
280.29285°
Mean anomaly
281.9635°
Eccentric anomaly
281.12879°
Mean motion
3.4473 °/min
Orbital period
104.43 mins
BSTAR
0.0004699
Loading maneuver chart data...
Computing Atmospheric mass density...

Documentation

Showing up to 5 results
|